Probability
7 8 7 7 8 9 8 7 5 2 0 1 7 16 15 7 2 2 2 1 0 0 0 0 0 0 0 0 0 0 0 0 0 0 0 0 0 0
6 8 8 8 10 12 10 9 7 3 1 3 9 16 15 8 3 3 2 1 0 0 0 0 0 0 0 0 0 0 0 0 0 0 0 0 0 0
6 7 7 9 13 15 14 12 9 5 3 4 10 15 13 8 5 3 1 0 0 0 0 0 0 0 0 0 0 0 0 0 0 0 0 0 0 0
8 9 8 9 13 15 14 11 9 7 6 5 8 11 10 6 3 1 0 0 0 0 0 0 0 0 0 0 0 0 0 0 0 0 0 0 0 0
12 12 11 10 11 11 9 8 7 7 6 4 5 6 7 4 2 1 1 1 0 0 0 0 0 0 0 0 0 0 0 0 0 0 0 0 0 0
12 13 11 9 8 7 6 6 5 6 5 4 3 4 5 4 3 2 2 1 0 0 0 0 0 0 0 0 0 0 0 0 0 0 0 0 0 0
11 10 8 6 5 5 5 4 4 4 4 3 2 3 3 3 3 3 2 1 0 0 0 0 0 0 0 0 0 0 0 0 0 0 0 0 0 0
11 8 5 4 4 4 3 2 1 1 2 2 2 1 2 3 3 3 1 0 0 0 0 0 0 0 0 0 0 0 0 0 0 0 0 0 0 0
10 7 4 3 3 3 3 1 0 0 1 2 2 2 2 2 2 2 1 0 0 0 0 0 0 0 0 0 0 0 0 0 0 0 0 0 0 0
9 8 6 4 3 3 3 2 1 0 0 1 2 2 2 1 1 1 0 0 0 0 0 0 0 0 0 0 0 0 0 0 0 0 0 0 0 0
7 7 6 5 4 3 3 3 2 1 0 0 1 1 1 0 0 0 0 0 0 0 0 0 0 0 0 0 0 0 0 0 0 0 0 0 0 0
6 6 6 5 3 3 3 3 2 1 0 0 0 0 0 0 0 0 0 0 0 0 0 0 0 0 0 0 0 0 0 0 0 0 0 0 0 0
5 5 4 3 1 1 2 3 2 1 0 0 0 0 0 0 0 0 0 0 0 0 0 0 0 0 0 0 0 0 0 0 0 0 0 0 0 0
2 2 1 1 0 0 1 2 1 0 0 0 0 0 0 0 0 0 0 0 0 0 0 0 0 0 0 0 0 0 0 0 0 0 0 0 0 0
0 0 0 0 0 0 0 0 0 0 0 0 0 0 0 0 0 0 0 0 0 0 0 0 0 0 0 0 0 0 0 0 0 0 0 0 0 0
0 0 0 0 0 0 0 0 0 0 0 0 0 0 0 0 0 0 0 0 0 0 0 0 0 0 0 0 0 0 0 0 0 0 0 0 0 0
0 0 0 0 0 0 0 0 0 0 0 0 0 0 0 0 0 0 0 0 0 0 0 0 0 0 0 0 0 0 0 0 0 0 0 0 0 0
0 0 0 0 0 0 0 0 0 0 0 0 0 0 0 0 0 0 0 0 0 0 0 0 0 0 0 0 0 0 0 0 0 0 0 0 0 0
0 0 0 0 0 0 0 0 0 0 0 0 0 0 0 0 0 0 0 0 0 0 0 0 0 0 0 0 0 0 0 0 0 0 0 0 0 0
0 0 0 0 0 0 0 0 0 0 0 0 0 0 0 0 0 0 0 0 0 0 0 0 0 0 0 0 0 0 0 0 0 0 0 0 0 0
0 0 0 0 0 0 0 0 0 0 0 0 0 0 0 0 0 0 0 0 0 0 0 0 0 0 0 0 0 0 0 0 0 0 0 0 0 0
0 0 0 0 0 0 0 0 0 0 0 0 0 0 0 0 0 0 0 0 0 0 0 0 0 0 0 0 0 0 0 0 0 0 0 0 0 0
0 0 0 0 0 0 0 0 0 0 0 0 0 0 0 0 0 0 0 0 0 0 0 0 0 0 0 0 0 0 0 0 0 0 0 0 0 0
Wind_Speed
2 2 1 1 1 1 1 1 1 1 1 1 2 4 4 5 5 5 5 7 8 7 6 6 6 5 5 5 6 6 6 7 7 7 7 8 8 8
1 1 1 2 2 2 2 2 2 1 1 2 3 3 4 5 6 5 6 9 8 7 7 7 6 6 6 6 7 7 7 8 8 8 8 8 8 9
2 2 2 2 3 3 3 3 3 2 2 2 3 4 5 5 4 2 4 4 4 6 6 6 5 5 5 6 6 7 8 8 9 9 9 9 9 10
2 3 3 2 3 4 3 3 3 3 3 3 3 3 4 3 2 2 2 4 3 6 6 6 5 5 5 6 7 7 8 8 8 9 10 10 11 11
4 4 4 4 4 4 5 4 3 4 3 3 3 3 3 3 3 3 4 3 2 5 5 4 4 4 4 6 7 7 7 7 7 8 9 9 10 11
7 7 6 6 5 4 4 4 4 4 3 3 3 3 3 3 3 3 3 3 3 3 3 2 1 3 4 6 7 6 5 5 5 5 6 7 8 10
9 9 11 13 14 9 7 6 5 4 4 4 4 4 4 4 4 3 3 3 3 3 2 2 1 1 1 5 6 5 3 2 2 3 4 5 7 8
9 8 9 11 14 16 17 15 11 7 5 4 5 5 5 4 4 4 3 3 2 3 3 3 2 2 0 1 5 4 3 1 2 4 5 6 8 9
7 6 7 8 8 8 11 13 14 15 11 7 7 5 4 4 4 4 3 3 2 2 2 3 3 3 3 2 5 5 5 5 6 7 7 8 9 10
7 7 7 6 5 5 8 8 8 8 8 7 6 5 5 3 3 3 3 3 2 3 4 3 3 3 4 1 4 4 5 7 8 9 10 10 11 11
8 8 7 7 8 7 7 7 7 5 8 9 8 6 5 4 4 4 5 4 3 3 4 4 4 4 4 2 2 4 7 9 9 10 11 11 12 10
8 8 11 9 10 9 6 6 6 4 3 4 3 2 2 1 3 3 4 5 4 3 5 4 4 5 4 3 4 4 5 7 10 10 10 10 11 7
7 6 6 10 11 10 8 5 4 1 0 1 2 2 2 3 4 3 3 3 3 2 3 4 4 4 4 5 5 4 4 5 5 5 7 10 11 8
7 6 6 10 10 9 6 5 4 3 0 2 3 3 3 3 2 1 0 1 2 3 2 1 2 3 4 6 6 5 5 5 4 4 5 7 8 9
8 11 9 8 6 5 5 4 4 2 2 3 3 3 2 1 1 1 1 2 3 3 1 2 2 3 3 5 5 5 5 5 4 4 5 5 5 5
9 9 8 5 2 2 1 0 1 2 2 3 3 2 1 1 2 2 2 3 2 2 2 2 3 4 4 5 5 5 5 5 5 5 5 5 5 4
6 5 4 3 3 2 2 2 2 2 2 3 2 2 2 2 1 1 2 3 3 3 3 3 3 3 4 4 4 4 5 5 5 5 6 6 5 4
5 4 4 3 3 3 3 3 3 3 2 2 2 2 2 2 2 2 2 2 3 3 3 3 3 4 4 4 3 4 5 5 6 6 6 6 6 5
2 2 3 3 3 3 2 3 3 3 1 1 1 1 1 2 2 2 2 2 3 3 3 3 3 4 6 7 5 5 5 6 6 6 5 5 6 6
2 3 3 3 2 2 3 3 3 2 1 0 1 1 1 2 2 2 2 2 3 4 4 3 3 3 4 6 7 7 6 5 5 6 6 6 6 7
3 3 3 3 3 3 3 2 2 1 1 1 1 1 2 2 2 3 2 3 3 3 4 4 3 5 5 4 6 5 5 6 7 6 6 6 6 5
3 3 3 3 3 3 2 1 1 1 1 0 1 1 2 2 3 3 3 3 3 4 4 4 4 4 4 5 7 7 7 6 7 10 10 8 5 6
3 3 3 3 3 2 2 1 1 1 1 1 1 1 2 2 2 3 3 3 4 5 5 5 5 4 5 5 6 6 9 8 6 6 6 8 11 14
Wind_Direction
208 198 248 290 309 16 28 91 135 168 189 80 68 66 87 93 107 107 102 108 105 98 90 80 70 61 54 46 39 35 28 20 13 6 358 350 343 335
177 150 124 339 7 29 17 37 60 93 105 73 74 65 65 91 86 91 100 109 110 107 98 89 80 70 61 54 49 44 36 29 21 14 8 3 357 350
188 128 102 43 30 24 29 41 42 59 93 87 75 68 65 68 74 90 129 119 115 119 115 109 101 88 75 68 64 57 48 39 29 19 11 5 360 354
114 97 95 90 68 36 34 44 46 58 91 107 98 80 65 60 50 32 70 95 110 127 131 124 115 107 98 87 78 69 59 48 37 28 19 10 2 356
100 90 80 77 68 56 46 37 29 50 68 97 98 82 67 42 28 28 43 45 71 124 130 129 133 131 123 112 95 82 71 58 46 34 23 13 5 360
82 79 70 68 64 59 60 46 40 42 63 82 88 81 63 37 40 16 31 20 20 45 41 46 110 138 130 132 116 102 87 69 49 31 17 5 356 350
86 80 76 76 70 64 65 53 49 50 57 69 74 70 52 37 21 356 26 13 8 31 14 344 14 63 123 145 132 124 119 94 37 360 341 334 331 328
103 97 91 83 82 79 74 67 61 63 56 63 70 72 57 35 12 6 17 1 350 1 354 335 360 10 24 110 150 169 186 231 286 293 297 302 305 306
107 106 100 96 92 93 86 76 64 59 61 75 75 67 64 30 10 4 8 348 318 317 349 338 0 2 355 76 176 209 226 248 266 276 282 289 294 297
94 95 95 86 80 95 97 86 72 57 63 74 78 70 69 30 6 346 334 323 319 15 24 354 353 345 339 310 241 232 250 262 271 279 285 290 293 294
84 81 89 84 65 88 103 102 98 89 77 89 97 99 82 43 16 9 3 356 4 30 23 1 346 336 321 322 342 310 296 289 288 288 290 290 291 294
93 80 73 78 67 72 90 95 92 82 92 115 122 142 149 110 51 38 20 7 359 12 22 2 349 346 327 337 346 325 317 313 309 304 301 299 299 298
108 97 79 77 72 69 75 81 85 68 4 130 120 111 90 71 62 54 45 24 9 354 354 356 341 342 324 317 318 318 322 320 319 315 312 310 307 299
108 104 96 83 75 70 70 52 33 7 15 79 78 67 64 57 41 26 355 254 235 240 269 316 311 318 317 316 315 319 323 318 320 320 317 318 316 311
102 109 111 102 92 83 76 44 20 24 54 71 73 68 71 71 322 320 312 280 268 263 233 224 267 293 296 301 306 311 315 312 314 318 314 316 310 307
109 113 110 101 75 68 111 74 63 47 44 60 64 60 46 40 28 9 346 325 314 312 298 267 256 266 281 289 296 307 314 313 317 317 315 308 303 307
128 136 147 153 160 157 126 97 85 74 56 53 52 43 29 22 18 2 336 331 343 342 335 320 306 291 287 290 305 316 318 317 316 318 316 313 311 315
137 149 151 147 137 129 126 120 99 75 46 41 47 37 17 360 356 350 339 342 342 338 333 327 330 330 326 322 319 323 318 316 313 311 309 311 310 307
129 127 117 115 115 119 114 108 104 100 53 20 40 29 358 343 346 345 346 358 348 332 323 324 338 345 335 329 317 309 305 306 308 308 307 308 305 305
184 141 129 128 120 110 103 98 104 117 105 2 36 15 353 341 343 347 356 2 332 316 319 327 343 339 316 305 300 300 296 299 303 304 306 303 296 295
167 146 141 141 127 107 98 96 97 102 93 311 58 22 347 344 348 342 342 341 319 317 331 328 316 300 282 289 300 303 303 296 290 287 294 301 303 305
154 137 121 113 110 113 118 128 166 153 157 279 62 12 356 349 342 337 340 336 329 330 327 318 313 310 307 308 310 311 309 307 299 289 276 264 282 298
130 119 120 128 128 142 139 176 234 118 88 46 32 8 353 342 327 326 333 334 327 325 324 321 320 316 314 310 308 310 313 315 313 312 306 289 270 266